Location: York
(31.8935°S, 116.7682°E)
Time: 10:12:39
(UTC+08:00)

Tiros 1 despin weight - Visible Passes

Search period start: 03 October 2022 00:00
Search period end: 13 October 2022 00:00
Orbit: 590 x 638 km, 48.2° (Epoch: 02 October)

Date Brightness Start Highest point End Pass type
(mag) Time Alt. Az. Time Alt. Az. Time Alt. Az.
03 Oct ? 03:03:08 24° ESE 03:03:08 24° ESE 03:05:02 10° ESE visible
03 Oct ? 04:40:07 19° WSW 04:42:12 26° SSW 04:46:04 10° SSE visible
04 Oct ? 03:17:52 32° SE 03:17:52 32° SE 03:20:26 10° SE visible
04 Oct ? 04:54:52 10° WSW 04:57:57 17° SSW 05:01:01 10° SSE visible
05 Oct ? 03:32:31 31° S 03:32:31 31° S 03:35:36 10° SE visible
05 Oct ? 05:11:49 10° SW 05:13:50 13° SSW 05:15:51 10° SSE visible
06 Oct ? 03:47:07 22° SSW 03:47:07 22° SSW 03:50:36 10° SSE visible
07 Oct ? 02:24:41 12° SE 02:24:41 12° SE 02:25:03 10° SE visible
07 Oct ? 04:01:39 14° SW 04:02:44 15° SSW 04:05:30 10° SSE visible
08 Oct ? 02:39:11 15° SSE 02:39:11 15° SSE 02:40:08 10° SSE visible
08 Oct ? 04:16:59 10° SSW 04:18:39 12° SSW 04:20:20 10° S visible
09 Oct ? 02:53:39 15° S 02:53:39 15° S 02:55:05 10° SSE visible
09 Oct ? 04:34:12 10° S 04:34:39 10° S 04:35:06 10° S visible
10 Oct ? 03:08:06 14° S 03:08:06 14° S 03:09:57 10° SSE visible
10 Oct ? 04:49:56 10° S 04:50:40 10° S 04:51:26 10° SSE visible
11 Oct ? 03:22:32 11° SSW 03:23:26 11° S 03:24:47 10° S visible
11 Oct ? 05:04:42 10° SSW 05:06:39 12° SSE 05:08:35 10° SE visible
12 Oct ? 03:39:00 10° S 03:39:26 10° S 03:39:52 10° S visible
